Miscellaneous Local Product
Issued by NWS North Platte, NE

Home | Current Version | Previous Version | Graphics & Text | Print | Product List | Glossary On
Versions: 1 2 3 4 5 6 7 8 9 10 11 12 13 14 15 16 17 18 19 20 21 22 23 24 25 26 27 28 29 30 31 32 33 34 35 36 37 38 39 40 41 42 43 44 45 46 47 48 49 50
791
AXUS43 KLBF 241310
MISLBF


WESTERN AND NORTH CENTRAL NEBRASKA HOURLY WEATHER ROUNDUP
NATIONAL WEATHER SERVICE NORTH PLATTE NE
700 AM CST SAT FEB 24 2018

NOTE: "FAIR" INDICATES FEW OR NO CLOUDS BELOW 12,000 FEET WITH NO
SIGNIFICANT WEATHER AND/OR OBSTRUCTIONS TO VISIBILITY.

NOTE: STATIONS NOT REPORTING VARIABLES SUCH AS SKY/WEATHER OR
PRESSURE ARE PROVIDED BY RAWS AND APRS NETWORKS AND ARE NOT UNDER
NATIONAL WEATHER SERVICE QUALITY CONTROL.

...OBSERVATIONS IN AND NEAR THE EASTERN PANHANDLE OF NEBRASKA...

CITY           SKY/WX    TMP DP  RH WIND       PRES   REMARKS
PINE RIDGE     LGT SNOW  22  21  96 SW9       29.78F FOG     WCI  12
GORDON         LGT SNOW  21  18  88 SW5       29.77F WCI  15
CHADRON        MOCLDY    19  16  88 CALM      29.78F
ALLIANCE       CLOUDY    21  20  96 S7        29.76S WCI  12
SIDNEY         CLOUDY    20  18  92 S9        29.78F WCI   9
CRESCENT LAKE    N/A     19  19  99 S6          N/A  WCI  11
$$

...OBSERVATIONS IN NORTHERN NEBRASKA AND FAR SOUTHERN SOUTH DAKOTA...

CITY           SKY/WX    TMP DP  RH WIND       PRES   REMARKS
WINNER         LGT SNOW  18  13  80 SE9       29.94F VSB 1   WCI   7
VALENTINE      LGT SNOW  16  12  84 E5        29.87F VSB 1   WCI   9
AINSWORTH      LGT SNOW  17  16  96 CALM      29.88F VSB 1
O`NEILL        LGT SNOW  11  10  93 CALM      29.97S VSB 1
THEDFORD       CLOUDY    19  17  93 CALM      29.86F
BROKEN BOW     CLOUDY    21  18  88 SE7       29.89F FOG     WCI  12
ORD            LGT SNOW  17  15  92 SE5       29.93F FOG     WCI  10
ALBION         LGT SNOW  19  17  92 CALM      29.98S
VALENTINE NWR    N/A     15  12  88 CALM        N/A
BUTTE            N/A      9   7  89 E7          N/A  WCI  -2
CHAMBERS         N/A     14  11  87 CALM        N/A
EWING            N/A     16  14  92 CALM        N/A
$$

...OBSERVATIONS IN SOUTHWEST NEBRASKA AND FAR NORTHEAST COLORADO...

CITY           SKY/WX    TMP DP  RH WIND       PRES   REMARKS
WRAY           CLOUDY    25  25 100 CALM      29.83S
HOLYOKE        CLOUDY    25  21  86 SE3       29.83F
IMPERIAL       CLOUDY    22  21  96 S5        29.86S WCI  16
OGALLALA       CLOUDY    22  20  91 CALM      29.84F
NORTH PLATTE   LGT SNOW  20  17  88 CALM      29.87F FOG
MCCOOK         CLOUDY    23  23 100 SE7       29.89F WCI  15
LEXINGTON      CLOUDY    23  21  91 SE5       29.89F FOG     WCI  17
STAPLETON        N/A     17  15  93 CALM        N/A
$$

...OBSERVATIONS IN CENTRAL LINCOLN COUNTY AREA...

CITY           SKY/WX    TMP DP  RH WIND       PRES   REMARKS
N.P. AIRPORT   LGT SNOW  20  17  88 CALM      29.87F FOG
N.P. DOWNTOWN    N/A     20  19  93 CALM        N/A
N.P. SOUTHEAST   N/A     19  17  91 CALM        N/A
N.P. HILLCREST   N/A     19  17  93 CALM        N/A
$$

...OBSERVATIONS ACROSS THE ROCKIES AND WESTERN HIGH PLAINS...

CITY           SKY/WX    TMP DP  RH WIND       PRES   REMARKS
RAPID CITY     MOCLDY    12   8  84 SE6       29.74F WCI   3
SCOTTSBLUFF    MOCLDY    16  15  96 CALM      29.78F FOG
CHEYENNE       CLEAR     16   3  56 NW14G22   29.72F WCI   2
DENVER         MOCLDY    20  18  92 SW8       29.78S FOG     WCI  10
BERTHOUD PASS  CLOUDY    -8 -18  59 NW38G47   29.52F WCI -39
COPPER MTN     LGT SNOW   1  -6  71 W20G35    29.62R VSB 3/4 WCI -20
MONARCH PASS   CLOUDY     0  -6  78 W35G47    29.73S WCI -28
ASPEN          LGT SNOW  14   9  80 N12       29.83R WCI   0
LARAMIE        CLEAR      8  -4  58 SW13      29.73R WCI  -8
CASPER         CLEAR      7   0  73 SW17      29.77S WCI -12
$$

...OBSERVATIONS ACROSS THE NORTHERN PLAINS...

CITY           SKY/WX    TMP DP  RH WIND       PRES   REMARKS
BISMARCK       CLEAR      1  -3  83 E5        29.91F WCI  -9
FARGO          MOCLDY    -1  -3  91 S13       30.10F FOG     WCI -19
PIERRE         CLOUDY     8   6  92 SE10      29.92F WCI  -6
SIOUX FALLS    CLOUDY    15  12  88 E7        30.01F FOG     WCI   5
$$

...OBSERVATIONS ACROSS THE CENTRAL AND SOUTHERN PLAINS...

CITY           SKY/WX    TMP DP  RH WIND       PRES   REMARKS
OMAHA          LGT SNOW  26  22  84 E6        30.01F FOG     WCI  19
GRAND ISLAND   LGT SNOW  20  17  88 N7        29.96S FOG     WCI  11
KANSAS CITY    DRIZZLE   33  32  96 E12       29.94F FOG     WCI  24
WICHITA        DRIZZLE   33  33 100 NW6       29.94F FOG     WCI  28
DODGE CITY     CLOUDY    28  26  92 E3        29.89F
OKLAHOMA CITY  DRZL/FOG  37  37 100 N9        29.85F VSB 1/2 WCI  30
DALLAS         TSTM      50  48  93 E12       29.81F FOG
AMARILLO       CLEAR     42  39  89 W16       29.82S
$$




USA.gov is the U.S. government's official web portal to all federal, state and local government web resources and services.